QPF
0.02 0.00 0.00 0.00 0.00 0.02 0.03 0.00 0.01 0.00 0.00 0.00 0.00 0.00 0.00 0.00 0.00 0.00 0.00 0.00 0.00 0.00 0.00 0.01 0.00 0.00 0.00 0.00 0.00 0.00 0.00 0.00 0.00 0.00 0.00 0.00 0.00 0.00 0.01 0.00 0.00 0.00 0.00 0.00 0.00 0.00 0.00 0.00 0.00
0.02 0.03 0.01 0.00 0.00 0.02 0.07 0.02 0.01 0.00 0.00 0.00 0.00 0.00 0.00 0.00 0.00 0.00 0.00 0.00 0.00 0.00 0.00 0.00 0.00 0.00 0.00 0.00 0.00 0.00 0.00 0.00 0.00 0.00 0.00 0.00 0.00 0.00 0.00 0.00 0.01 0.00 0.00 0.00 0.00 0.00 0.00 0.00 0.00
0.00 0.00 0.00 0.00 0.00 0.02 0.05 0.01 0.01 0.00 0.00 0.00 0.00 0.00 0.00 0.00 0.00 0.00 0.00 0.00 0.00 0.00 0.00 0.00 0.00 0.00 0.00 0.00 0.00 0.00 0.00 0.00 0.00 0.00 0.00 0.00 0.00 0.00 0.00 0.00 0.00 0.00 0.00 0.00 0.00 0.00 0.00 0.00 0.02
0.00 0.00 0.00 0.00 0.00 0.01 0.02 0.02 0.00 0.02 0.00 0.00 0.00 0.00 0.00 0.00 0.00 0.00 0.00 0.00 0.00 0.00 0.00 0.00 0.00 0.00 0.00 0.00 0.00 0.00 0.00 0.00 0.00 0.00 0.00 0.00 0.00 0.00 0.00 0.00 0.00 0.00 0.00 0.00 0.00 0.00 0.00 0.00 0.02
0.00 0.00 0.00 0.00 0.00 0.00 0.00 0.00 0.01 0.01 0.01 0.00 0.00 0.00 0.00 0.00 0.00 0.00 0.00 0.00 0.00 0.00 0.00 0.00 0.00 0.00 0.00 0.00 0.00 0.00 0.00 0.00 0.00 0.00 0.00 0.00 0.00 0.00 0.00 0.00 0.00 0.00 0.00 0.00 0.00 0.00 0.00 0.01 0.03
0.00 0.00 0.00 0.00 0.00 0.00 0.00 0.00 0.00 0.00 0.00 0.00 0.00 0.00 0.00 0.01 0.00 0.00 0.00 0.00 0.00 0.00 0.00 0.00 0.00 0.00 0.00 0.00 0.00 0.00 0.00 0.00 0.00 0.00 0.00 0.00 0.00 0.00 0.00 0.00 0.00 0.00 0.00 0.00 0.00 0.00 0.00 0.00 0.00
0.00 0.00 0.00 0.00 0.00 0.00 0.00 0.00 0.00 0.00 0.00 0.00 0.00 0.00 0.00 0.00 0.00 0.00 0.00 0.00 0.00 0.00 0.00 0.00 0.00 0.00 0.00 0.00 0.00 0.00 0.00 0.00 0.00 0.00 0.00 0.00 0.00 0.00 0.00 0.00 0.00 0.00 0.00 0.00 0.00 0.00 0.00 0.00 0.00
0.00 0.00 0.00 0.00 0.00 0.00 0.00 0.00 0.00 0.00 0.00 0.00 0.00 0.00 0.00 0.00 0.00 0.00 0.00 0.00 0.01 0.00 0.00 0.00 0.00 0.00 0.00 0.00 0.01 0.00 0.00 0.00 0.00 0.00 0.00 0.00 0.00 0.00 0.00 0.00 0.00 0.00 0.00 0.00 0.00 0.00 0.00 0.00 0.01
0.00 0.00 0.00 0.00 0.00 0.00 0.00 0.00 0.00 0.00 0.00 0.00 0.00 0.00 0.00 0.00 0.00 0.00 0.02 0.07 0.07 0.00 0.00 0.00 0.00 0.00 0.00 0.00 0.01 0.00 0.00 0.00 0.00 0.00 0.00 0.00 0.00 0.00 0.00 0.00 0.00 0.00 0.00 0.00 0.00 0.00 0.00 0.00 0.01
0.00 0.00 0.00 0.00 0.00 0.00 0.00 0.00 0.00 0.00 0.00 0.00 0.00 0.00 0.00 0.00 0.00 0.00 0.00 0.01 0.01 0.00 0.00 0.00 0.00 0.00 0.00 0.00 0.00 0.00 0.02 0.09 0.05 0.00 0.00 0.01 0.00 0.00 0.00 0.00 0.00 0.00 0.00 0.00 0.00 0.00 0.00 0.01 0.01
0.00 0.00 0.00 0.00 0.00 0.00 0.00 0.00 0.00 0.00 0.00 0.00 0.00 0.00 0.00 0.00 0.00 0.00 0.00 0.00 0.00 0.00 0.00 0.00 0.00 0.00 0.00 0.00 0.01 0.00 0.01 0.02 0.00 0.00 0.00 0.00 0.00 0.00 0.00 0.00 0.00 0.00 0.00 0.00 0.00 0.00 0.00 0.00 0.01
0.00 0.00 0.00 0.00 0.00 0.00 0.00 0.00 0.00 0.00 0.00 0.00 0.00 0.00 0.00 0.00 0.00 0.00 0.00 0.00 0.00 0.00 0.00 0.00 0.00 0.00 0.00 0.00 0.02 0.03 0.00 0.01 0.00 0.00 0.00 0.00 0.00 0.00 0.00 0.00 0.00 0.00 0.00 0.00 0.00 0.00 0.00 0.00 0.03
0.00 0.00 0.00 0.00 0.00 0.00 0.00 0.00 0.00 0.00 0.00 0.00 0.00 0.00 0.00 0.00 0.00 0.00 0.00 0.00 0.00 0.00 0.00 0.00 0.00 0.00 0.00 0.00 0.00 0.01 0.01 0.01 0.00 0.00 0.00 0.00 0.00 0.00 0.00 0.00 0.00 0.00 0.00 0.00 0.00 0.00 0.00 0.02 0.03
0.00 0.00 0.00 0.00 0.00 0.00 0.00 0.00 0.00 0.00 0.00 0.00 0.00 0.00 0.00 0.00 0.00 0.00 0.00 0.00 0.00 0.00 0.01 0.00 0.02 0.01 0.00 0.00 0.01 0.02 0.00 0.00 0.00 0.00 0.00 0.00 0.00 0.00 0.00 0.00 0.00 0.00 0.00 0.00 0.00 0.01 0.01 0.00 0.00
0.00 0.00 0.00 0.00 0.00 0.00 0.00 0.00 0.00 0.00 0.00 0.00 0.00 0.00 0.00 0.00 0.00 0.00 0.00 0.00 0.00 0.00 0.01 0.00 0.01 0.03 0.01 0.00 0.02 0.08 0.05 0.01 0.01 0.00 0.00 0.00 0.00 0.00 0.00 0.00 0.00 0.00 0.00 0.00 0.00 0.00 0.01 0.00 0.00
0.00 0.00 0.00 0.00 0.00 0.00 0.00 0.00 0.00 0.00 0.00 0.00 0.00 0.00 0.00 0.00 0.00 0.00 0.00 0.00 0.00 0.00 0.00 0.00 0.00 0.07 0.03 0.00 0.03 0.02 0.01 0.09 0.09 0.03 0.02 0.00 0.00 0.00 0.00 0.00 0.02 0.00 0.00 0.00 0.00 0.03 0.03 0.00 0.00
0.00 0.00 0.00 0.00 0.00 0.00 0.00 0.00 0.00 0.00 0.00 0.00 0.00 0.00 0.00 0.00 0.00 0.00 0.00 0.00 0.00 0.01 0.00 0.00 0.00 0.05 0.05 0.00 0.08 0.18 0.07 0.05 0.17 0.07 0.05 0.00 0.00 0.03 0.00 0.00 0.00 0.00 0.00 0.00 0.00 0.02 0.01 0.00 0.00
0.00 0.00 0.00 0.00 0.00 0.00 0.00 0.00 0.00 0.00 0.00 0.00 0.00 0.00 0.00 0.00 0.00 0.00 0.00 0.00 0.00 0.01 0.01 0.00 0.00 0.01 0.02 0.01 0.10 0.17 0.07 0.02 0.10 0.05 0.04 0.01 0.01 0.00 0.00 0.00 0.00 0.00 0.00 0.00 0.00 0.00 0.00 0.00 0.00
0.00 0.00 0.00 0.00 0.00 0.00 0.00 0.00 0.00 0.00 0.00 0.00 0.00 0.00 0.00 0.00 0.00 0.00 0.00 0.00 0.00 0.01 0.02 0.00 0.00 0.00 0.00 0.00 0.06 0.05 0.02 0.00 0.01 0.00 0.00 0.03 0.02 0.00 0.00 0.00 0.00 0.00 0.00 0.00 0.00 0.02 0.00 0.00 0.00
0.00 0.00 0.00 0.00 0.00 0.00 0.00 0.00 0.00 0.00 0.00 0.00 0.00 0.00 0.00 0.00 0.00 0.00 0.02 0.03 0.01 0.01 0.01 0.01 0.00 0.00 0.00 0.00 0.01 0.03 0.01 0.00 0.00 0.00 0.00 0.04 0.01 0.00 0.00 0.00 0.00 0.00 0.00 0.00 0.02 0.00 0.00 0.00 0.00
0.00 0.00 0.00 0.00 0.00 0.00 0.00 0.00 0.00 0.00 0.00 0.00 0.00 0.00 0.00 0.00 0.00 0.00 0.04 0.09 0.02 0.01 0.00 0.01 0.01 0.00 0.00 0.00 0.00 0.00 0.04 0.02 0.00 0.00 0.01 0.01 0.00 0.00 0.00 0.00 0.00 0.01 0.00 0.02 0.05 0.08 0.03 0.01 0.00
0.00 0.00 0.00 0.00 0.00 0.00 0.00 0.00 0.00 0.00 0.00 0.00 0.00 0.00 0.01 0.02 0.00 0.02 0.04 0.02 0.00 0.00 0.00 0.00 0.01 0.02 0.03 0.03 0.01 0.00 0.01 0.00 0.00 0.00 0.00 0.00 0.00 0.00 0.00 0.00 0.00 0.00 0.00 0.01 0.04 0.10 0.06 0.00 0.00
0.00 0.00 0.00 0.00 0.00 0.00 0.00 0.00 0.00 0.00 0.00 0.00 0.00 0.00 0.00 0.01 0.01 0.02 0.02 0.00 0.01 0.00 0.00 0.00 0.00 0.01 0.04 0.04 0.02 0.01 0.00 0.00 0.00 0.01 0.00 0.00 0.00 0.00 0.00 0.00 0.00 0.00 0.00 0.00 0.00 0.01 0.00 0.00 0.00
0.00 0.00 0.00 0.00 0.00 0.00 0.00 0.00 0.00 0.00 0.00 0.00 0.01 0.01 0.00 0.01 0.00 0.03 0.01 0.00 0.01 0.00 0.00 0.00 0.00 0.00 0.01 0.03 0.02 0.00 0.00 0.00 0.00 0.02 0.02 0.00 0.00 0.00 0.00 0.00 0.00 0.02 0.00 0.00 0.00 0.00 0.00 0.00 0.00
0.00 0.00 0.00 0.00 0.00 0.00 0.00 0.00 0.00 0.00 0.00 0.02 0.06 0.03 0.02 0.01 0.02 0.01 0.01 0.00 0.00 0.00 0.00 0.00 0.00 0.00 0.00 0.02 0.03 0.01 0.00 0.00 0.00 0.00 0.07 0.03 0.00 0.00 0.04 0.06 0.03 0.03 0.04 0.00 0.00 0.00 0.00 0.00 0.00
0.00 0.00 0.00 0.00 0.00 0.00 0.00 0.00 0.00 0.01 0.02 0.00 0.05 0.14 0.09 0.07 0.02 0.04 0.03 0.00 0.05 0.12 0.05 0.07 0.06 0.01 0.01 0.06 0.10 0.06 0.01 0.00 0.00 0.00 0.00 0.03 0.00 0.00 0.03 0.06 0.01 0.02 0.00 0.00 0.00 0.00 0.00 0.00 0.00
0.00 0.00 0.00 0.00 0.00 0.00 0.00 0.00 0.00 0.01 0.05 0.05 0.11 0.13 0.17 0.12 0.03 0.04 0.06 0.03 0.03 0.10 0.07 0.18 0.22 0.25 0.25 0.14 0.13 0.10 0.08 0.01 0.04 0.04 0.02 0.01 0.05 0.09 0.05 0.15 0.12 0.10 0.05 0.05 0.02 0.00 0.00 0.00 0.01
0.00 0.00 0.00 0.00 0.00 0.00 0.00 0.00 0.00 0.02 0.02 0.02 0.12 0.24 0.18 0.11 0.01 0.00 0.00 0.05 0.08 0.03 0.05 0.09 0.26 0.52 0.26 0.21 0.22 0.13 0.06 0.06 0.06 0.10 0.15 0.10 0.20 0.37 0.16 0.34 0.44 0.23 0.16 0.17 0.23 0.20 0.20 0.17 0.06
0.00 0.00 0.00 0.00 0.00 0.00 0.00 0.00 0.00 0.00 0.00 0.06 0.17 0.17 0.13 0.05 0.00 0.00 0.00 0.00 0.00 0.00 0.01 0.04 0.16 0.24 0.33 0.29 0.13 0.06 0.01 0.00 0.03 0.07 0.13 0.12 0.12 0.24 0.41 0.47 0.16 0.13 0.09 0.07 0.23 0.22 0.13 0.14 0.07
0.00 0.00 0.00 0.00 0.00 0.00 0.00 0.00 0.00 0.00 0.00 0.00 0.01 0.01 0.01 0.01 0.00 0.00 0.00 0.00 0.00 0.00 0.00 0.02 0.08 0.15 0.10 0.06 0.05 0.02 0.01 0.06 0.05 0.07 0.11 0.11 0.16 0.29 0.04 0.08 0.07 0.09 0.09 0.05 0.06 0.06 0.01 0.03 0.04
MSLP
1007.06 1007.12 1007.48 1008.14 1008.91 1009.86 1009.45 1008.10 1006.83 1006.02 1005.71 1005.83 1005.69 1006.55 1007.85 1008.21 1009.22 1011.16 1011.56 1012.11 1012.57 1013.13 1013.16 1013.32 1013.44 1013.70 1014.03 1014.19 1014.32 1014.53 1014.73 1015.02 1015.21 1015.33 1015.49 1015.77 1016.05 1016.19 1016.27 1016.64 1016.91 1017.20 1017.38 1017.54 1017.70 1017.87 1018.09 1018.29 1018.21
1007.18 1007.62 1007.78 1008.51 1009.93 1010.44 1010.06 1008.66 1007.44 1006.27 1005.80 1006.15 1006.42 1006.94 1007.38 1009.11 1009.86 1011.15 1011.84 1012.35 1012.52 1012.98 1013.30 1013.44 1013.63 1013.86 1014.18 1014.40 1014.57 1014.84 1015.09 1015.42 1015.61 1015.62 1015.79 1016.05 1016.44 1016.58 1016.30 1016.79 1017.13 1017.38 1017.66 1017.83 1017.94 1018.03 1018.29 1018.46 1018.45
1007.57 1007.69 1008.73 1010.08 1011.04 1010.95 1010.11 1008.76 1007.33 1006.43 1005.61 1005.71 1006.56 1006.98 1007.99 1009.91 1010.64 1011.22 1011.73 1012.22 1012.68 1013.18 1013.44 1013.61 1013.83 1014.16 1014.47 1014.66 1014.90 1015.09 1015.19 1015.45 1015.78 1015.93 1016.21 1016.40 1016.62 1017.03 1016.50 1016.97 1017.36 1017.69 1017.90 1018.06 1018.13 1018.32 1018.54 1018.79 1018.78
1007.14 1008.14 1009.91 1010.28 1010.59 1010.09 1010.41 1009.17 1007.65 1006.76 1006.42 1006.21 1006.78 1007.84 1008.77 1009.23 1009.83 1010.79 1011.89 1012.44 1012.82 1013.39 1013.55 1013.70 1013.96 1014.30 1014.64 1014.86 1015.03 1015.41 1015.63 1015.71 1016.05 1016.24 1016.44 1016.55 1016.89 1017.03 1017.02 1017.24 1017.53 1017.87 1018.10 1018.42 1018.44 1018.60 1018.71 1019.11 1019.01
1007.17 1008.24 1009.71 1010.03 1009.67 1009.14 1009.12 1007.44 1007.41 1006.79 1006.65 1006.59 1007.13 1008.60 1009.12 1009.99 1010.30 1011.20 1012.04 1012.64 1013.01 1013.66 1013.78 1013.97 1014.22 1014.48 1014.78 1015.01 1015.35 1015.62 1015.93 1016.09 1016.23 1016.52 1016.57 1016.79 1017.03 1017.09 1017.11 1017.46 1017.84 1018.09 1018.37 1018.63 1018.61 1018.74 1018.74 1019.08 1019.02
1007.83 1008.38 1009.09 1009.04 1008.33 1007.65 1007.36 1006.77 1006.30 1006.59 1006.82 1007.43 1008.11 1008.84 1010.10 1010.50 1010.70 1011.49 1012.11 1012.66 1013.11 1013.59 1013.87 1014.18 1014.43 1014.72 1015.01 1015.22 1015.49 1015.75 1016.02 1016.31 1016.50 1016.70 1016.90 1016.92 1017.03 1017.25 1017.43 1017.42 1017.85 1018.26 1018.50 1018.67 1018.74 1018.79 1018.83 1019.04 1019.10
1008.08 1008.67 1008.46 1008.36 1008.06 1007.36 1006.95 1006.24 1006.14 1006.53 1006.92 1007.26 1007.87 1009.15 1010.57 1010.89 1010.92 1011.27 1011.97 1012.64 1013.22 1013.44 1013.92 1014.32 1014.64 1014.93 1015.13 1015.34 1015.63 1015.86 1016.04 1016.39 1016.66 1016.79 1017.09 1017.34 1017.32 1017.26 1017.43 1017.63 1017.93 1018.30 1018.51 1018.61 1018.66 1018.74 1018.94 1019.11 1019.24
1006.80 1007.79 1007.08 1007.36 1007.36 1006.95 1006.33 1006.22 1006.19 1006.37 1006.76 1007.20 1007.62 1009.09 1010.14 1010.48 1010.91 1011.64 1012.45 1012.94 1013.41 1013.76 1013.90 1014.42 1014.74 1015.00 1015.26 1015.46 1015.66 1015.91 1016.17 1016.50 1016.71 1016.94 1017.12 1017.29 1017.33 1017.12 1017.25 1017.55 1017.91 1018.15 1018.43 1018.54 1018.64 1018.58 1018.72 1018.92 1019.11
1005.56 1006.80 1006.83 1006.77 1006.29 1005.86 1005.27 1005.55 1006.50 1006.47 1006.71 1006.86 1007.19 1008.02 1009.10 1010.10 1010.99 1011.91 1012.92 1013.53 1013.86 1014.06 1014.15 1014.23 1014.58 1014.93 1015.22 1015.58 1015.71 1015.80 1016.06 1016.38 1016.61 1016.78 1016.87 1017.06 1017.30 1017.31 1017.33 1017.56 1017.76 1017.95 1018.23 1018.41 1018.51 1018.45 1018.51 1018.61 1018.63
1004.44 1005.46 1005.22 1004.90 1005.49 1005.15 1005.37 1005.34 1006.32 1006.91 1006.87 1007.50 1007.59 1008.58 1009.52 1010.23 1010.74 1011.45 1012.35 1013.18 1013.67 1013.99 1014.31 1014.47 1014.49 1014.64 1015.20 1015.29 1015.44 1015.57 1015.80 1015.98 1016.19 1016.53 1016.79 1016.96 1017.20 1017.29 1017.49 1017.50 1017.61 1017.79 1018.02 1018.20 1018.31 1018.16 1018.20 1018.29 1018.58
1003.30 1003.83 1003.77 1004.38 1004.22 1004.11 1005.07 1005.50 1005.91 1006.76 1007.35 1007.17 1007.82 1008.79 1009.54 1010.25 1010.82 1011.26 1012.00 1012.25 1012.53 1013.32 1013.97 1014.27 1014.51 1014.65 1014.77 1014.78 1015.11 1015.46 1015.58 1015.86 1015.80 1016.17 1016.77 1017.07 1017.08 1017.18 1017.41 1017.62 1017.80 1017.84 1017.85 1018.03 1018.10 1018.05 1018.25 1018.29 1018.60
1002.52 1002.63 1002.74 1003.60 1003.86 1004.31 1004.53 1005.15 1006.03 1006.23 1006.73 1007.00 1007.52 1008.47 1009.54 1010.34 1010.81 1011.21 1011.69 1012.28 1012.72 1013.02 1013.45 1013.99 1014.26 1014.56 1014.69 1014.74 1015.02 1015.16 1015.41 1015.69 1015.89 1016.21 1016.64 1016.77 1016.99 1017.07 1017.36 1017.57 1017.75 1017.88 1017.87 1017.89 1017.93 1017.99 1018.19 1018.05 1018.32
1002.24 1002.33 1002.27 1002.42 1003.00 1003.86 1004.40 1005.22 1005.39 1005.77 1006.34 1006.88 1007.50 1008.49 1009.40 1009.93 1010.20 1010.49 1010.71 1011.48 1012.18 1012.62 1013.00 1013.46 1013.86 1014.03 1014.06 1014.67 1014.73 1015.05 1015.37 1015.67 1015.74 1016.04 1016.37 1016.67 1016.93 1016.91 1017.12 1017.32 1017.51 1017.67 1017.70 1017.72 1017.79 1017.90 1017.88 1017.96 1017.93
1001.78 1002.00 1002.13 1002.27 1002.65 1003.88 1004.34 1005.26 1005.09 1005.68 1006.19 1006.73 1007.08 1007.81 1008.64 1009.25 1009.68 1010.22 1010.81 1011.03 1011.51 1011.96 1012.65 1013.08 1013.48 1013.67 1013.73 1014.42 1014.64 1014.82 1014.88 1015.25 1015.65 1015.85 1016.05 1016.37 1016.49 1016.55 1016.75 1017.02 1017.21 1017.35 1017.48 1017.51 1017.60 1017.65 1017.60 1017.58 1017.59
1001.52 1002.35 1002.48 1002.36 1002.56 1003.23 1004.24 1005.57 1005.26 1005.15 1005.97 1006.49 1006.96 1007.37 1007.86 1008.42 1009.00 1009.36 1009.71 1010.22 1010.61 1011.03 1011.71 1012.41 1012.99 1013.38 1013.70 1014.22 1014.27 1014.32 1014.55 1014.91 1015.25 1015.43 1015.67 1016.04 1016.09 1016.29 1016.19 1016.57 1016.89 1016.93 1017.10 1017.24 1017.35 1017.28 1017.21 1017.23 1017.07
1002.16 1002.41 1002.83 1002.44 1002.41 1002.93 1003.14 1004.30 1004.52 1005.10 1005.67 1006.31 1006.72 1007.02 1007.32 1007.69 1007.99 1008.40 1008.86 1009.32 1009.86 1010.36 1010.98 1011.67 1012.45 1013.15 1013.28 1013.65 1013.93 1014.23 1014.33 1014.57 1014.90 1015.24 1015.49 1015.78 1015.76 1015.92 1016.21 1016.32 1016.24 1016.24 1016.65 1016.84 1017.08 1017.19 1017.21 1017.11 1017.15
1003.27 1002.97 1002.79 1002.48 1002.17 1002.43 1003.05 1003.87 1004.08 1004.85 1005.37 1005.90 1006.28 1006.64 1006.87 1007.23 1007.54 1007.92 1008.30 1008.73 1009.31 1009.82 1010.33 1010.87 1011.47 1012.25 1012.84 1013.08 1013.65 1013.99 1014.41 1014.62 1014.75 1015.21 1015.42 1015.49 1015.42 1015.48 1015.64 1015.88 1015.76 1015.68 1016.09 1016.45 1016.73 1016.93 1017.12 1016.98 1016.95
1004.03 1003.03 1002.51 1002.23 1002.20 1002.48 1002.86 1003.14 1003.56 1004.28 1004.91 1005.30 1005.82 1006.25 1006.55 1006.88 1006.64 1006.99 1007.74 1008.41 1009.06 1009.49 1009.81 1010.37 1010.72 1011.50 1012.55 1012.88 1013.71 1014.32 1014.36 1014.58 1014.72 1015.09 1015.09 1015.15 1015.26 1015.23 1015.37 1015.47 1015.41 1015.56 1015.89 1016.15 1016.55 1016.70 1016.85 1016.82 1016.70
1003.25 1002.78 1002.42 1001.80 1001.88 1002.31 1002.60 1002.91 1002.99 1003.90 1004.69 1005.18 1005.67 1006.03 1006.15 1006.32 1006.26 1006.65 1007.40 1008.17 1008.85 1009.19 1009.71 1010.22 1010.73 1010.99 1011.72 1012.77 1013.75 1014.19 1014.21 1014.28 1014.44 1014.40 1014.58 1014.69 1015.04 1015.02 1015.15 1015.33 1015.50 1015.51 1015.75 1015.93 1016.35 1016.57 1016.60 1016.64 1016.60
1002.42 1002.46 1002.24 1002.11 1001.98 1002.47 1002.77 1003.47 1003.83 1003.74 1004.44 1004.46 1005.12 1005.70 1005.79 1006.12 1006.23 1006.89 1008.04 1008.70 1008.78 1008.96 1009.51 1010.21 1010.70 1011.15 1011.40 1011.92 1012.74 1013.18 1013.56 1013.84 1013.88 1014.01 1014.18 1014.25 1014.63 1014.78 1015.00 1015.30 1015.46 1015.48 1015.72 1015.86 1016.24 1016.44 1016.54 1016.53 1016.55
1002.41 1002.50 1002.45 1002.52 1002.46 1002.67 1003.53 1004.62 1004.92 1004.88 1004.97 1004.58 1005.35 1005.45 1006.01 1006.95 1007.43 1007.90 1007.37 1007.42 1008.78 1009.43 1009.54 1009.91 1010.27 1010.69 1011.16 1011.48 1012.27 1013.06 1013.54 1013.86 1014.16 1014.22 1014.13 1013.90 1013.96 1014.23 1014.52 1014.74 1014.93 1015.14 1015.38 1015.64 1015.94 1016.14 1016.36 1016.61 1016.54
1002.53 1002.38 1002.40 1002.76 1003.63 1004.14 1004.43 1006.06 1005.88 1005.93 1005.52 1005.94 1005.33 1005.98 1006.53 1006.85 1007.47 1007.93 1008.31 1008.17 1008.61 1009.21 1009.59 1009.58 1010.08 1010.54 1010.86 1011.32 1011.91 1012.39 1012.95 1013.44 1013.44 1013.35 1013.64 1013.68 1013.53 1013.72 1013.86 1014.02 1014.36 1014.65 1015.03 1015.42 1015.51 1015.72 1015.99 1016.15 1016.34
1002.22 1002.30 1002.71 1003.32 1004.31 1005.27 1005.87 1006.47 1006.22 1006.38 1006.54 1007.14 1007.13 1006.77 1006.67 1006.14 1005.24 1006.10 1007.81 1008.81 1008.85 1009.30 1009.42 1009.75 1009.86 1010.58 1010.80 1011.06 1011.43 1012.07 1012.46 1012.78 1012.75 1013.21 1013.27 1013.33 1013.28 1013.24 1013.45 1013.69 1013.90 1014.26 1014.48 1014.76 1014.95 1015.28 1015.53 1015.46 1015.91
1002.04 1002.68 1003.71 1004.70 1005.78 1007.03 1006.54 1006.95 1007.32 1007.78 1007.78 1008.06 1008.68 1008.45 1007.63 1006.83 1006.28 1006.94 1007.56 1008.90 1009.18 1008.77 1009.13 1009.50 1009.39 1009.39 1009.94 1010.44 1011.03 1011.40 1011.72 1012.22 1012.62 1012.74 1012.96 1012.93 1012.91 1012.83 1012.79 1012.94 1013.39 1013.58 1013.91 1014.09 1014.15 1014.57 1014.93 1014.96 1015.10
1002.51 1004.61 1005.85 1007.16 1007.80 1008.29 1007.49 1007.52 1007.66 1008.12 1007.93 1008.05 1007.96 1008.44 1008.48 1007.98 1007.66 1008.26 1008.52 1009.06 1009.35 1009.11 1008.56 1008.29 1008.56 1008.53 1008.88 1009.78 1010.49 1010.84 1011.14 1011.30 1011.64 1012.09 1012.13 1012.24 1012.55 1012.34 1012.21 1012.42 1012.61 1012.74 1013.00 1013.32 1013.53 1014.01 1014.35 1014.56 1014.64
1003.12 1004.74 1006.49 1007.89 1008.92 1009.25 1008.92 1008.79 1007.57 1008.20 1007.45 1008.13 1008.74 1009.21 1010.00 1010.47 1009.01 1008.98 1008.66 1008.83 1008.97 1008.48 1006.52 1009.46 1010.19 1009.33 1008.76 1009.10 1009.70 1009.88 1010.12 1010.55 1010.84 1011.10 1011.51 1011.86 1011.78 1011.59 1011.63 1011.56 1011.76 1011.89 1012.36 1012.74 1012.91 1013.15 1013.61 1014.01 1014.29
1003.03 1004.41 1005.40 1007.21 1008.75 1009.94 1010.29 1009.53 1008.24 1007.71 1008.62 1008.37 1009.03 1009.64 1010.38 1011.10 1010.15 1009.69 1008.88 1008.24 1008.31 1007.39 1006.38 1008.93 1007.76 1005.19 1009.10 1009.62 1009.55 1009.90 1009.40 1009.86 1010.31 1010.29 1010.56 1010.89 1011.03 1011.16 1011.31 1011.38 1011.95 1012.93 1013.76 1012.78 1012.52 1012.64 1012.96 1013.28 1013.52
1002.40 1003.58 1005.54 1007.41 1009.29 1010.77 1010.69 1009.94 1008.65 1008.47 1009.00 1008.39 1008.96 1010.10 1011.56 1012.05 1009.60 1009.59 1009.10 1008.64 1008.64 1008.33 1007.87 1008.93 1009.61 1010.70 1009.28 1009.86 1010.07 1009.67 1009.13 1009.09 1009.34 1009.59 1010.11 1010.20 1010.42 1010.86 1011.03 1011.89 1012.70 1012.79 1012.36 1012.39 1011.89 1012.31 1012.67 1012.53 1012.53
1002.97 1004.14 1005.85 1007.44 1008.97 1010.37 1010.69 1009.71 1007.62 1008.01 1008.67 1008.71 1008.80 1009.58 1011.02 1011.48 1009.37 1009.46 1009.15 1009.26 1009.24 1009.00 1008.50 1008.24 1009.28 1009.90 1010.19 1009.95 1010.19 1009.18 1008.66 1008.61 1008.90 1009.26 1009.54 1009.75 1010.04 1010.63 1010.69 1011.43 1011.42 1010.83 1010.87 1010.91 1011.21 1011.41 1011.60 1011.75 1011.55
1003.65 1005.07 1006.43 1008.60 1009.38 1010.19 1010.01 1008.64 1007.06 1006.98 1008.01 1008.00 1008.61 1008.73 1009.80 1009.85 1009.53 1010.23 1010.15 1009.93 1010.14 1009.83 1009.59 1008.95 1008.95 1009.13 1009.29 1009.02 1008.45 1008.01 1008.04 1008.26 1008.57 1008.80 1009.07 1009.45 1009.42 1009.86 1009.86 1010.07 1010.65 1010.78 1010.45 1009.87 1010.15 1010.56 1010.62 1011.22 1011.22
Thickness
5856 5857 5853 5836 5797 5786 5772 5793 5816 5814 5814 5827 5834 5818 5800 5808 5796 5770 5795 5793 5791 5785 5783 5781 5780 5777 5774 5773 5772 5771 5771 5768 5765 5764 5762 5758 5755 5754 5754 5750 5747 5744 5741 5740 5740 5738 5735 5732 5733
5856 5853 5844 5820 5778 5764 5767 5786 5796 5813 5827 5829 5825 5817 5809 5790 5802 5790 5789 5791 5789 5785 5782 5780 5778 5776 5773 5772 5771 5769 5767 5764 5761 5760 5758 5754 5750 5750 5753 5747 5744 5742 5740 5739 5739 5737 5733 5730 5730
5852 5850 5819 5793 5770 5761 5761 5789 5811 5824 5838 5832 5819 5822 5807 5784 5794 5793 5797 5793 5787 5783 5779 5777 5776 5774 5771 5770 5769 5767 5766 5764 5760 5757 5754 5750 5746 5744 5750 5746 5741 5739 5739 5737 5737 5734 5730 5727 5727
5849 5835 5815 5779 5769 5785 5779 5785 5812 5817 5824 5835 5826 5798 5809 5813 5805 5803 5797 5792 5787 5780 5778 5776 5775 5772 5770 5769 5768 5765 5762 5762 5758 5754 5751 5748 5745 5742 5744 5743 5739 5738 5736 5733 5733 5730 5728 5724 5724
5849 5828 5786 5776 5777 5796 5794 5815 5816 5812 5817 5821 5820 5793 5796 5803 5808 5802 5795 5790 5784 5779 5776 5774 5772 5770 5768 5766 5764 5762 5760 5758 5756 5752 5750 5746 5743 5742 5741 5740 5737 5736 5733 5730 5731 5729 5730 5725 5725
5817 5818 5783 5774 5796 5809 5814 5825 5827 5817 5815 5812 5805 5796 5789 5803 5800 5796 5795 5789 5784 5780 5776 5773 5770 5768 5766 5765 5763 5761 5759 5756 5754 5750 5747 5746 5743 5740 5738 5740 5738 5734 5731 5730 5729 5730 5730 5726 5725
5811 5796 5793 5793 5796 5800 5812 5832 5822 5816 5811 5812 5817 5787 5788 5793 5799 5799 5794 5790 5784 5780 5776 5772 5769 5766 5765 5763 5760 5759 5757 5754 5751 5749 5745 5742 5740 5740 5740 5739 5738 5734 5730 5729 5730 5730 5728 5725 5723
5829 5807 5804 5804 5797 5799 5824 5824 5831 5821 5813 5832 5824 5785 5780 5798 5804 5798 5790 5787 5782 5779 5776 5771 5768 5765 5763 5762 5759 5757 5755 5752 5750 5747 5744 5742 5741 5742 5741 5741 5739 5736 5732 5730 5730 5732 5730 5728 5726
5852 5797 5788 5800 5806 5817 5839 5827 5830 5834 5823 5828 5827 5814 5811 5808 5804 5793 5782 5779 5777 5776 5775 5773 5769 5766 5763 5759 5758 5757 5755 5753 5749 5748 5746 5743 5742 5743 5742 5742 5740 5738 5735 5733 5732 5734 5733 5732 5732
5833 5802 5814 5837 5830 5826 5835 5837 5828 5819 5817 5810 5815 5816 5813 5807 5802 5792 5784 5776 5774 5773 5772 5772 5770 5768 5763 5761 5761 5760 5759 5756 5753 5748 5746 5744 5742 5743 5743 5743 5742 5739 5737 5735 5734 5738 5736 5735 5736
5852 5824 5845 5841 5845 5850 5835 5831 5832 5815 5803 5814 5807 5808 5809 5803 5799 5796 5790 5786 5784 5779 5774 5773 5770 5767 5767 5767 5765 5764 5763 5758 5757 5752 5746 5743 5743 5746 5745 5744 5743 5741 5740 5738 5736 5739 5738 5738 5737
5845 5860 5861 5848 5850 5845 5838 5840 5825 5824 5818 5829 5826 5818 5810 5803 5800 5798 5792 5788 5783 5779 5778 5776 5772 5769 5768 5768 5766 5764 5762 5760 5757 5753 5748 5746 5744 5746 5746 5746 5744 5742 5742 5740 5740 5742 5741 5742 5740
5852 5859 5865 5865 5857 5851 5849 5836 5833 5831 5836 5835 5829 5820 5810 5807 5806 5805 5804 5799 5791 5782 5780 5778 5775 5773 5773 5768 5767 5764 5761 5758 5758 5756 5751 5746 5744 5746 5747 5747 5745 5742 5742 5743 5741 5742 5744 5742 5743
5867 5863 5863 5866 5860 5849 5839 5834 5843 5838 5840 5834 5831 5823 5822 5815 5812 5806 5802 5801 5798 5794 5787 5783 5779 5778 5776 5772 5768 5767 5766 5762 5759 5757 5753 5749 5747 5748 5749 5747 5746 5744 5744 5744 5742 5743 5746 5747 5746
5878 5848 5854 5859 5860 5850 5847 5819 5828 5850 5843 5836 5833 5831 5828 5825 5823 5816 5814 5809 5808 5804 5797 5788 5783 5780 5780 5774 5772 5771 5768 5765 5761 5758 5755 5749 5749 5750 5752 5750 5749 5748 5747 5746 5745 5746 5749 5750 5750
5855 5851 5817 5853 5861 5858 5852 5808 5840 5851 5843 5835 5838 5837 5834 5830 5829 5829 5826 5821 5817 5811 5801 5794 5789 5783 5781 5777 5773 5769 5768 5766 5763 5758 5756 5751 5752 5752 5751 5751 5754 5754 5751 5749 5748 5748 5749 5750 5750
5833 5811 5822 5840 5864 5860 5847 5819 5843 5851 5844 5837 5840 5840 5838 5834 5833 5832 5831 5827 5822 5815 5809 5805 5799 5789 5783 5780 5773 5771 5767 5766 5763 5758 5755 5754 5755 5754 5754 5753 5756 5757 5755 5753 5751 5749 5750 5752 5752
5808 5818 5831 5829 5852 5853 5840 5832 5845 5848 5843 5841 5843 5842 5841 5836 5840 5842 5837 5833 5828 5822 5817 5810 5808 5800 5788 5780 5775 5768 5768 5765 5762 5757 5756 5756 5754 5752 5753 5754 5757 5757 5757 5755 5752 5751 5751 5752 5754
5831 5833 5833 5845 5860 5850 5840 5845 5852 5848 5845 5839 5840 5842 5844 5843 5849 5849 5843 5837 5831 5827 5821 5814 5807 5805 5797 5785 5774 5770 5769 5767 5765 5764 5762 5760 5753 5750 5752 5752 5752 5754 5755 5755 5753 5752 5751 5751 5754
5844 5834 5830 5846 5861 5852 5847 5838 5846 5850 5844 5850 5845 5844 5846 5847 5847 5845 5836 5830 5830 5828 5823 5814 5808 5803 5802 5796 5786 5781 5777 5774 5772 5769 5766 5763 5757 5754 5754 5753 5753 5755 5753 5752 5750 5750 5748 5750 5753
5830 5831 5834 5834 5848 5854 5835 5819 5824 5842 5844 5850 5847 5851 5849 5838 5836 5833 5836 5837 5830 5825 5826 5817 5813 5808 5805 5801 5792 5782 5776 5773 5769 5767 5766 5767 5764 5760 5758 5757 5756 5756 5755 5753 5751 5749 5747 5744 5750
5816 5848 5848 5843 5818 5796 5834 5771 5813 5823 5832 5829 5840 5841 5839 5839 5839 5839 5831 5828 5829 5825 5826 5824 5817 5810 5807 5802 5793 5786 5777 5771 5772 5774 5770 5769 5768 5766 5763 5760 5757 5757 5754 5752 5751 5751 5748 5748 5745
5829 5853 5849 5842 5821 5810 5811 5783 5802 5819 5823 5817 5821 5829 5836 5851 5865 5850 5838 5828 5828 5826 5825 5820 5817 5809 5805 5802 5797 5788 5781 5779 5779 5774 5771 5770 5770 5770 5767 5765 5763 5759 5757 5757 5754 5750 5747 5748 5745
5859 5847 5827 5815 5799 5770 5806 5793 5796 5796 5806 5807 5807 5815 5830 5844 5850 5843 5841 5826 5822 5830 5827 5819 5817 5815 5810 5806 5799 5794 5788 5781 5775 5773 5770 5771 5771 5771 5771 5770 5767 5766 5763 5761 5760 5755 5751 5750 5750
5834 5800 5759 5763 5757 5756 5791 5789 5792 5803 5810 5810 5812 5814 5825 5830 5832 5829 5828 5818 5817 5820 5825 5826 5819 5814 5808 5803 5800 5796 5792 5790 5784 5777 5774 5772 5768 5771 5774 5772 5770 5770 5768 5766 5763 5757 5754 5750 5750
5826 5804 5760 5757 5751 5761 5778 5765 5794 5811 5818 5815 5813 5812 5807 5798 5816 5816 5822 5821 5818 5823 5836 5814 5801 5801 5806 5805 5800 5800 5799 5795 5792 5787 5780 5776 5774 5776 5777 5777 5775 5773 5770 5767 5766 5763 5759 5754 5750
5825 5805 5814 5787 5782 5751 5751 5778 5804 5812 5796 5810 5806 5805 5801 5794 5804 5812 5823 5824 5819 5828 5834 5809 5786 5792 5802 5798 5796 5797 5799 5798 5794 5792 5788 5782 5780 5778 5775 5772 5764 5753 5747 5759 5762 5761 5759 5756 5753
5837 5839 5796 5778 5759 5734 5745 5760 5771 5794 5786 5807 5799 5789 5776 5776 5809 5813 5816 5818 5816 5817 5819 5807 5789 5786 5758 5789 5774 5788 5797 5798 5797 5793 5787 5783 5778 5773 5771 5760 5749 5743 5750 5753 5759 5756 5755 5756 5756
5821 5804 5800 5791 5767 5731 5726 5743 5793 5794 5791 5790 5797 5790 5784 5781 5806 5809 5812 5809 5807 5804 5808 5808 5798 5787 5784 5791 5786 5790 5792 5795 5794 5790 5786 5782 5778 5771 5767 5756 5753 5754 5758 5762 5760 5754 5750 5753 5758
5831 5810 5788 5758 5764 5748 5743 5753 5814 5807 5800 5806 5797 5804 5799 5798 5806 5794 5789 5791 5791 5795 5794 5797 5793 5790 5788 5791 5797 5799 5794 5789 5787 5786 5782 5777 5776 5771 5768 5763 5756 5755 5758 5765 5761 5756 5754 5750 5752